COSMOS 2251 DEB, 33793

Orbit data source: Space-Track

COSMOS 2251 DEB, 33793 is space debris in LEO originally from a launch on Wed, 16 Jun 1993 UTC launched from the Plesetsk Missile And Space Complex (PKMTR). The debris from Iridium 33, an American commercial communications satellite, has been tracked extensively since its accidental collision with the defunct Russian satellite Cosmos 2251 in 2009. This event, occurring at high speed in low Earth orbit (LEO), generated thousands of pieces of space debris, significantly increasing the risk of further collisions. The Iridium 33 debris cloud has impacted space traffic management and orbital debris mitigation strategies, making it a subject of ongoing study in space situational awareness.

Loading next visibility...
Identifier
33793, 1993-036AJ
Orbit
LEO
Country
Flag of CISCIS
Related business
Manufacturer
Unknown
Mission
Spacecraft
Bus & Motor
Unknown
Mass
Unknown
Launch date (UTC)
1993-06-16 (33 years ago)
Launch vehicle
Unknown
Launch site
Plesetsk Missile And Space Complex (PKMTR)
Object type
Payload
Rocket body
Debris
Shape & HBR
Unknown shape, 0.1 m
Radar Cross Section
Small (<0.1 m²)

Expand to show TLE details & history
Last TLE update: 14 hours ago

TLE from 14 hours ago
0 COSMOS 2251 DEB
1 33793U 93036AJ  26035.52696403  .00001491  00000-0  59220-3 0  9993
2 33793  73.9801  52.1401 0078285 192.1045 325.5584 14.27961162879746
Epoch: 2026-02-04T12:38Z
TLE epoch observation values (Epoch: 2026-02-04T12:38:49.692Z)
Latitude
21.9346°
Longitude
-98.86314°
Altitude
754.714 km
Speed
7.503 km/s
True Right ascension
15h 02m 08s
True Declination
21° 48' 56"
Sunlit
Object was in daylight at epoch
Visualization orbit readout
Latitude
Unknown
Longitude
Unknown
Altitude
Unknown
Speed
Unknown
Apparent Right ascension
Unknown
Apparent Declination
Unknown
Sunlit
N/A
Visualization observer readout
Local Sidereal Time
04:11:38
Azimuth
Unknown
Elevation
Unknown
Doppler factor
Unknown
Orbital elements
Apogee altitude
852.356 km
Perigee altitude
740.027 km
Semi-major axis
7,174.328 km
Eccentricity
0.00783
Inclination
73.9801°
RAAN
52.1401°
Arg. of periapsis
192.1045°
True anomaly
325.04692°
Mean anomaly
325.5584°
Eccentric anomaly
325.30308°
Mean motion
3.57167 °/min
Orbital period
100.79 mins
BSTAR
0.0005922
Loading maneuver chart data...
Computing Atmospheric mass density...

Documentation

Showing up to 5 results
|